User: anonymous   Login
Location: Memphis
(29.8667°N, 31.2500°E)
Time: 23:48:07
(UTC+00:00)
Language:

Cosmos 2184 Rocket - Orbit

View from above orbital plane
View from above orbital plane
View from above satellite
View from above satellite

Ground track
Ground track

The orbit data is extracted from the following two-line orbital elements,

1 21938U 92020B   21129.49193219  .00000024  00000-0  90926-5 0  9996
2 21938  82.9337  24.5098 0029061 181.2494 351.7057 13.75286561458483
Epoch (UTC): 09 May 2021 11:48:22
Eccentricity: 0.0029061
inclination: 82.9337°
perigee height: 959 km
apogee height: 1002 km
right ascension of ascending node: 24.5098°
argument of perigee: 181.2494°
revolutions per day: 13.75286561
mean anomaly at epoch: 351.7057°
orbit number at epoch: 45848

The dashed part of the orbit path shows where the satellite is in the earth's shadow,  

DLR